DLH9CK EDDM-EBBR

Flight info

Callsign DLH9CK
Flight time 1h 6m
Altitude 32000
Route GIVMI1N/26R GIVMI Y101 INBED DCT REKDI DCT OSBIT DCT TEKTU DCT TESGA DCT UMUPU T880 BATTY
Aircraft A320/M-SDE3FGHIRWY/LB1

Departure

Time 2026-05-04 19:02
Airport Munich Airport (EDDM)

Arrival

Time 2026-05-04 20:08
Airport Brussels Airport (EBBR)
Time Latitude Longitude Altitude Speed Heading
2026-05-04 18:15 48.35643 11.79274 1486 ft 0 kts 263°
2026-05-04 18:51 48.35644 11.79282 1471 ft 2 kts 263°
2026-05-04 18:51 48.35646 11.79312 1473 ft 3 kts 263°
2026-05-04 18:52 48.35648 11.79342 1474 ft 3 kts 263°
2026-05-04 18:52 48.35651 11.79371 1479 ft 3 kts 254°
2026-05-04 18:52 48.35658 11.79397 1479 ft 3 kts 225°
2026-05-04 18:52 48.35673 11.79413 1475 ft 3 kts 189°
2026-05-04 18:53 48.35686 11.79414 1485 ft 1 kts 173°
2026-05-04 18:53 48.35700 11.79411 1476 ft 1 kts 173°
2026-05-04 18:53 48.35703 11.79411 1477 ft 0 kts 173°
2026-05-04 18:55 48.35692 11.79423 1475 ft 3 kts 136°
2026-05-04 18:55 48.35699 11.79467 1484 ft 4 kts 42°
2026-05-04 18:56 48.35736 11.79473 1476 ft 6 kts 354°
2026-05-04 18:56 48.35780 11.79466 1485 ft 8 kts 353°
2026-05-04 18:56 48.35827 11.79457 1485 ft 6 kts 354°
2026-05-04 18:56 48.35877 11.79458 1483 ft 9 kts 14°
2026-05-04 18:57 48.35953 11.79500 1485 ft 13 kts
2026-05-04 18:57 48.36044 11.79487 1485 ft 14 kts 353°
2026-05-04 18:57 48.36134 11.79471 1481 ft 12 kts 353°
2026-05-04 18:57 48.36206 11.79491 1481 ft 12 kts 45°
2026-05-04 18:58 48.36226 11.79633 1479 ft 15 kts 83°
2026-05-04 18:58 48.36239 11.79803 1474 ft 20 kts 83°
2026-05-04 18:58 48.36256 11.80019 1485 ft 22 kts 83°
2026-05-04 18:58 48.36274 11.80250 1483 ft 23 kts 83°
2026-05-04 18:59 48.36292 11.80494 1478 ft 24 kts 83°
2026-05-04 18:59 48.36312 11.80749 1477 ft 25 kts 83°
2026-05-04 18:59 48.36330 11.80984 1485 ft 20 kts 83°
2026-05-04 18:59 48.36347 11.81202 1485 ft 22 kts 83°
2026-05-04 19:00 48.36365 11.81433 1485 ft 23 kts 83°
2026-05-04 19:00 48.36382 11.81649 1478 ft 18 kts 83°
2026-05-04 19:00 48.36394 11.81813 1477 ft 11 kts 84°
2026-05-04 19:00 48.36395 11.81926 1485 ft 10 kts 94°
2026-05-04 19:01 48.36424 11.82002 1481 ft 8 kts 25°
2026-05-04 19:01 48.36494 11.81996 1481 ft 15 kts 353°
2026-05-04 19:01 48.36603 11.81974 1485 ft 13 kts 352°
2026-05-04 19:01 48.36668 11.81881 1473 ft 15 kts 276°
2026-05-04 19:02 48.36644 11.81539 1482 ft 64 kts 263°
2026-05-04 19:02 48.36567 11.80534 1478 ft 127 kts 263°
2026-05-04 19:02 48.36447 11.78937 1538 ft 171 kts 264°
2026-05-04 19:02 48.36329 11.77200 2287 ft 168 kts 265°
2026-05-04 19:03 48.36206 11.75364 2639 ft 190 kts 264°
2026-05-04 19:03 48.36045 11.73293 2990 ft 209 kts 263°
2026-05-04 19:03 48.35856 11.71015 3332 ft 230 kts 263°
2026-05-04 19:03 48.35748 11.68532 3913 ft 241 kts 278°
2026-05-04 19:04 48.36362 11.66128 4486 ft 260 kts 302°
2026-05-04 19:04 48.37360 11.63752 5093 ft 275 kts 302°
2026-05-04 19:04 48.38386 11.61307 5977 ft 278 kts 301°
2026-05-04 19:04 48.39429 11.58835 6645 ft 282 kts 303°
2026-05-04 19:05 48.40832 11.56780 6877 ft 285 kts 327°
2026-05-04 19:05 48.42612 11.55451 6989 ft 288 kts 334°
2026-05-04 19:05 48.44475 11.54178 7808 ft 290 kts 334°
2026-05-04 19:05 48.46307 11.52937 8701 ft 292 kts 333°
2026-05-04 19:06 48.47541 11.52097 9256 ft 295 kts 332°
2026-05-04 19:06 48.50096 11.50343 10222 ft 306 kts 332°
2026-05-04 19:06 48.52104 11.48951 10469 ft 330 kts 332°
2026-05-04 19:06 48.54234 11.47475 10977 ft 342 kts 332°
2026-05-04 19:07 48.56415 11.45971 11676 ft 347 kts 332°
2026-05-04 19:07 48.58621 11.44452 12406 ft 351 kts 332°
2026-05-04 19:07 48.60892 11.42886 13137 ft 356 kts 332°
2026-05-04 19:07 48.63122 11.41340 13812 ft 360 kts 332°
2026-05-04 19:08 48.65410 11.39749 14447 ft 363 kts 332°
2026-05-04 19:08 48.67718 11.38143 15106 ft 366 kts 332°
2026-05-04 19:08 48.70027 11.36480 15761 ft 367 kts 328°
2026-05-04 19:08 48.72180 11.34398 16403 ft 368 kts 323°
2026-05-04 19:09 48.73591 11.32964 16826 ft 370 kts 323°
2026-05-04 19:09 48.76464 11.30049 17724 ft 373 kts 323°
2026-05-04 19:09 48.77549 11.28949 18033 ft 374 kts 323°
2026-05-04 19:09 48.79091 11.27386 18595 ft 371 kts 324°
2026-05-04 19:10 48.81256 11.25191 19022 ft 377 kts 323°
2026-05-04 19:10 48.83459 11.22991 19517 ft 383 kts 327°
2026-05-04 19:10 48.85879 11.21225 20010 ft 389 kts 337°
2026-05-04 19:10 48.87588 11.20353 20348 ft 392 kts 339°
2026-05-04 19:11 48.91072 11.18602 21027 ft 396 kts 339°
2026-05-04 19:11 48.92812 11.17720 21347 ft 398 kts 339°
2026-05-04 19:11 48.95447 11.16378 21845 ft 401 kts 339°
2026-05-04 19:11 48.98106 11.15021 22331 ft 404 kts 339°
2026-05-04 19:12 49.00782 11.13657 22843 ft 407 kts 339°
2026-05-04 19:12 49.06169 11.10824 23734 ft 411 kts 332°
2026-05-04 19:12 49.08577 11.08526 24127 ft 408 kts 317°
2026-05-04 19:13 49.10767 11.05750 24510 ft 410 kts 317°
2026-05-04 19:13 49.12954 11.02938 24908 ft 412 kts 316°
2026-05-04 19:13 49.15054 11.00217 25305 ft 412 kts 319°
2026-05-04 19:13 49.17247 10.97369 25600 ft 416 kts 316°
2026-05-04 19:14 49.19457 10.94496 25988 ft 417 kts 316°
2026-05-04 19:14 49.21675 10.91612 26362 ft 419 kts 316°
2026-05-04 19:14 49.23900 10.88720 26772 ft 421 kts 316°
2026-05-04 19:14 49.26107 10.85853 27183 ft 422 kts 316°
2026-05-04 19:15 49.28378 10.82899 27565 ft 424 kts 316°
2026-05-04 19:15 49.30598 10.80011 27921 ft 426 kts 316°
2026-05-04 19:15 49.33631 10.76059 28404 ft 428 kts 316°
2026-05-04 19:15 49.35131 10.74100 28638 ft 430 kts 316°
2026-05-04 19:16 49.37414 10.71109 28958 ft 433 kts 315°
2026-05-04 19:16 49.39713 10.68101 29287 ft 435 kts 315°
2026-05-04 19:16 49.42024 10.65079 29624 ft 438 kts 315°
2026-05-04 19:16 49.44345 10.62037 29954 ft 440 kts 315°
2026-05-04 19:17 49.46673 10.58981 30238 ft 442 kts 315°
2026-05-04 19:17 49.49014 10.55903 30510 ft 443 kts 316°
2026-05-04 19:17 49.51360 10.52815 30797 ft 444 kts 316°
2026-05-04 19:17 49.53711 10.49718 31070 ft 446 kts 316°
2026-05-04 19:18 49.56073 10.46605 31328 ft 447 kts 315°
2026-05-04 19:18 49.58430 10.43494 31684 ft 446 kts 315°
2026-05-04 19:18 49.60784 10.40376 31918 ft 446 kts 315°
2026-05-04 19:18 49.63118 10.37280 31978 ft 435 kts 315°
2026-05-04 19:19 49.65354 10.34317 31963 ft 426 kts 315°
2026-05-04 19:19 49.69810 10.28398 31966 ft 421 kts 315°
2026-05-04 19:20 49.74269 10.22438 31972 ft 421 kts 315°
2026-05-04 19:20 49.78662 10.16570 31966 ft 419 kts 314°
2026-05-04 19:21 49.83071 10.10657 31964 ft 419 kts 314°
2026-05-04 19:21 49.87475 10.04737 31962 ft 419 kts 314°
2026-05-04 19:22 49.91870 9.98812 31956 ft 419 kts 314°
2026-05-04 19:22 49.96270 9.92878 31957 ft 419 kts 314°
2026-05-04 19:23 50.00674 9.86922 31975 ft 420 kts 314°
2026-05-04 19:23 50.05040 9.80987 31971 ft 419 kts 314°
2026-05-04 19:24 50.08799 9.74153 31969 ft 410 kts 299°
2026-05-04 19:24 50.11925 9.66796 31969 ft 410 kts 299°
2026-05-04 19:25 50.15069 9.59375 31986 ft 410 kts 298°
2026-05-04 19:25 50.18207 9.51953 31976 ft 410 kts 298°
2026-05-04 19:26 50.21349 9.44512 31977 ft 410 kts 298°
2026-05-04 19:26 50.24490 9.37061 31977 ft 410 kts 298°
2026-05-04 19:27 50.27619 9.29603 31971 ft 410 kts 298°
2026-05-04 19:27 50.30741 9.22130 31996 ft 411 kts 298°
2026-05-04 19:28 50.33775 9.14628 31983 ft 408 kts 292°
2026-05-04 19:28 50.35724 9.06415 31975 ft 402 kts 282°
2026-05-04 19:29 50.37387 8.98056 31971 ft 402 kts 282°
2026-05-04 19:29 50.39044 8.89693 31969 ft 402 kts 282°
2026-05-04 19:30 50.40693 8.81305 31974 ft 403 kts 282°
2026-05-04 19:30 50.42343 8.72901 31974 ft 403 kts 282°
2026-05-04 19:31 50.43983 8.64505 31973 ft 403 kts 282°
2026-05-04 19:31 50.45093 8.55977 31975 ft 398 kts 274°
2026-05-04 19:32 50.45951 8.47390 31982 ft 398 kts 275°
2026-05-04 19:32 50.46806 8.38807 31986 ft 398 kts 274°
2026-05-04 19:33 50.47652 8.30212 32007 ft 399 kts 274°
2026-05-04 19:33 50.48394 8.22586 32003 ft 399 kts 274°
2026-05-04 19:33 50.48810 8.18285 31809 ft 400 kts 274°
2026-05-04 19:34 50.49227 8.13961 31498 ft 400 kts 274°
2026-05-04 19:34 50.49647 8.09630 31194 ft 401 kts 274°
2026-05-04 19:34 50.50066 8.05297 30889 ft 403 kts 274°
2026-05-04 19:34 50.50484 8.00959 30590 ft 400 kts 274°
2026-05-04 19:35 50.50904 7.96562 30301 ft 413 kts 274°
2026-05-04 19:35 50.51326 7.92092 29998 ft 417 kts 274°
2026-05-04 19:35 50.51755 7.87583 29678 ft 418 kts 274°
2026-05-04 19:35 50.52186 7.83053 29334 ft 417 kts 274°
2026-05-04 19:36 50.52610 7.78571 29004 ft 415 kts 274°
2026-05-04 19:36 50.53031 7.74092 28669 ft 413 kts 274°
2026-05-04 19:36 50.53448 7.69615 28343 ft 411 kts 274°
2026-05-04 19:36 50.53849 7.65242 28025 ft 409 kts 274°
2026-05-04 19:37 50.54253 7.60814 27704 ft 408 kts 274°
2026-05-04 19:37 50.54656 7.56423 27400 ft 406 kts 274°
2026-05-04 19:37 50.55055 7.52056 27139 ft 404 kts 274°
2026-05-04 19:37 50.55453 7.47676 26874 ft 403 kts 274°
2026-05-04 19:38 50.55819 7.43320 26638 ft 399 kts 270°
2026-05-04 19:38 50.55901 7.38988 26382 ft 395 kts 266°
2026-05-04 19:38 50.55933 7.34687 26130 ft 393 kts 267°
2026-05-04 19:38 50.55966 7.30393 25880 ft 392 kts 267°
2026-05-04 19:39 50.55998 7.26127 25635 ft 390 kts 267°
2026-05-04 19:39 50.56026 7.21853 25392 ft 389 kts 267°
2026-05-04 19:39 50.56053 7.17666 25148 ft 387 kts 267°
2026-05-04 19:39 50.56040 7.13441 24906 ft 385 kts 266°
2026-05-04 19:40 50.55969 7.09229 24667 ft 384 kts 265°
2026-05-04 19:40 50.55864 7.05053 24423 ft 382 kts 264°
2026-05-04 19:40 50.55747 7.00890 24281 ft 382 kts 265°
2026-05-04 19:40 50.55890 6.96706 24176 ft 383 kts 272°
2026-05-04 19:41 50.56154 6.92534 24060 ft 383 kts 272°
2026-05-04 19:41 50.56417 6.88379 23933 ft 382 kts 272°
2026-05-04 19:41 50.56679 6.84218 23815 ft 381 kts 272°
2026-05-04 19:41 50.56939 6.80075 23705 ft 381 kts 272°
2026-05-04 19:42 50.57200 6.75935 23583 ft 380 kts 272°
2026-05-04 19:42 50.57458 6.71797 23453 ft 379 kts 272°
2026-05-04 19:42 50.57711 6.67674 23304 ft 379 kts 272°
2026-05-04 19:42 50.57957 6.63604 23168 ft 378 kts 272°
2026-05-04 19:43 50.58206 6.59483 23034 ft 378 kts 272°
2026-05-04 19:43 50.58433 6.55381 22901 ft 376 kts 270°
2026-05-04 19:43 50.58548 6.51266 22783 ft 375 kts 268°
2026-05-04 19:43 50.58579 6.47153 22646 ft 378 kts 267°
2026-05-04 19:44 50.58570 6.43024 22514 ft 378 kts 266°
2026-05-04 19:44 50.58553 6.38886 22381 ft 378 kts 266°
2026-05-04 19:44 50.58546 6.34761 22247 ft 377 kts 267°
2026-05-04 19:44 50.58554 6.30643 22103 ft 377 kts 267°
2026-05-04 19:45 50.58574 6.26524 21946 ft 375 kts 267°
2026-05-04 19:45 50.58599 6.22413 21974 ft 376 kts 267°
2026-05-04 19:45 50.58623 6.18297 21974 ft 376 kts 267°
2026-05-04 19:45 50.58646 6.14239 21975 ft 376 kts 267°
2026-05-04 19:46 50.58667 6.10127 21973 ft 376 kts 267°
2026-05-04 19:46 50.58687 6.06019 21975 ft 376 kts 267°
2026-05-04 19:46 50.58702 6.01897 21977 ft 378 kts 268°
2026-05-04 19:46 50.58714 5.97752 21686 ft 379 kts 268°
2026-05-04 19:47 50.58723 5.93618 21351 ft 376 kts 268°
2026-05-04 19:47 50.58731 5.89516 21018 ft 374 kts 268°
2026-05-04 19:47 50.58738 5.85429 20688 ft 373 kts 268°
2026-05-04 19:47 50.58742 5.81355 20362 ft 371 kts 268°
2026-05-04 19:48 50.58748 5.77309 20043 ft 369 kts 268°
2026-05-04 19:48 50.58754 5.73330 19727 ft 368 kts 268°
2026-05-04 19:48 50.58761 5.69321 19410 ft 366 kts 268°
2026-05-04 19:48 50.58766 5.65326 19099 ft 364 kts 268°
2026-05-04 19:49 50.58768 5.61345 18790 ft 363 kts 268°
2026-05-04 19:49 50.58766 5.57391 18489 ft 362 kts 268°
2026-05-04 19:49 50.58762 5.53429 18174 ft 362 kts 268°
2026-05-04 19:49 50.58757 5.49470 17821 ft 361 kts 269°
2026-05-04 19:50 50.58751 5.45522 17465 ft 360 kts 269°
2026-05-04 19:50 50.58744 5.41588 17129 ft 359 kts 269°
2026-05-04 19:50 50.58738 5.37670 16790 ft 358 kts 269°
2026-05-04 19:50 50.58731 5.33815 16458 ft 356 kts 269°
2026-05-04 19:51 50.58722 5.29867 16123 ft 355 kts 269°
2026-05-04 19:51 50.58710 5.25982 15793 ft 354 kts 269°
2026-05-04 19:51 50.58695 5.22117 15468 ft 353 kts 269°
2026-05-04 19:51 50.58678 5.18267 15150 ft 352 kts 269°
2026-05-04 19:52 50.58663 5.14422 14830 ft 351 kts 269°
2026-05-04 19:52 50.58648 5.10635 14521 ft 350 kts 270°
2026-05-04 19:52 50.58631 5.06817 14205 ft 349 kts 270°
2026-05-04 19:52 50.58612 5.02999 13895 ft 346 kts 270°
2026-05-04 19:53 50.58592 4.99248 13566 ft 341 kts 270°
2026-05-04 19:53 50.58573 4.95543 13219 ft 336 kts 271°
2026-05-04 19:53 50.58553 4.91975 12905 ft 331 kts 270°
2026-05-04 19:53 50.58530 4.88360 12574 ft 326 kts 270°
2026-05-04 19:54 50.58507 4.84885 12245 ft 322 kts 270°
2026-05-04 19:54 50.58483 4.81386 11912 ft 318 kts 270°
2026-05-04 19:54 50.58460 4.77942 11576 ft 309 kts 271°
2026-05-04 19:54 50.58434 4.74585 11257 ft 304 kts 270°
2026-05-04 19:55 50.58406 4.71268 10937 ft 302 kts 270°
2026-05-04 19:55 50.58376 4.67986 10613 ft 299 kts 270°
2026-05-04 19:55 50.58460 4.64739 10302 ft 295 kts 279°
2026-05-04 19:55 50.58819 4.61580 10005 ft 292 kts 283°
2026-05-04 19:56 50.59213 4.58457 9740 ft 291 kts 283°
2026-05-04 19:56 50.59603 4.55336 9450 ft 290 kts 282°
2026-05-04 19:56 50.59992 4.52278 9162 ft 288 kts 283°
2026-05-04 19:56 50.60380 4.49192 8875 ft 287 kts 283°
2026-05-04 19:57 50.60829 4.46134 8587 ft 285 kts 289°
2026-05-04 19:57 50.61501 4.43226 8316 ft 283 kts 292°
2026-05-04 19:57 50.62205 4.40327 8063 ft 282 kts 292°
2026-05-04 19:57 50.62905 4.37446 7810 ft 281 kts 292°
2026-05-04 19:58 50.63598 4.34580 7560 ft 280 kts 292°
2026-05-04 19:58 50.64418 4.31826 7312 ft 276 kts 308°
2026-05-04 19:58 50.65847 4.29903 7071 ft 270 kts 336°
2026-05-04 19:58 50.67659 4.29307 6968 ft 267 kts
2026-05-04 19:59 50.69399 4.30151 6975 ft 267 kts 32°
2026-05-04 19:59 50.70343 4.31437 6979 ft 269 kts 51°
2026-05-04 19:59 50.71215 4.35200 6977 ft 272 kts 89°
2026-05-04 19:59 50.71106 4.37329 6964 ft 274 kts 94°
2026-05-04 20:00 50.71190 4.40301 6756 ft 272 kts 79°
2026-05-04 20:00 50.71529 4.43227 6557 ft 270 kts 75°
2026-05-04 20:00 50.72248 4.45928 6364 ft 267 kts 59°
2026-05-04 20:00 50.73192 4.48464 6158 ft 267 kts 58°
2026-05-04 20:01 50.74152 4.50965 5959 ft 266 kts 57°
2026-05-04 20:01 50.75100 4.53429 5741 ft 266 kts 58°
2026-05-04 20:01 50.76060 4.55917 5544 ft 265 kts 58°
2026-05-04 20:01 50.77019 4.58400 5342 ft 264 kts 57°
2026-05-04 20:02 50.77972 4.60872 5137 ft 263 kts 58°
2026-05-04 20:02 50.78924 4.63332 4931 ft 262 kts 58°
2026-05-04 20:02 50.79866 4.65785 4681 ft 261 kts 58°
2026-05-04 20:02 50.80786 4.68211 4421 ft 251 kts 59°
2026-05-04 20:03 50.81672 4.70509 4171 ft 239 kts 58°
2026-05-04 20:03 50.82527 4.72707 3927 ft 231 kts 58°
2026-05-04 20:03 50.83481 4.74713 3673 ft 228 kts 40°
2026-05-04 20:03 50.84851 4.75918 3427 ft 227 kts 20°
2026-05-04 20:04 50.86343 4.76727 3178 ft 226 kts 18°
2026-05-04 20:04 50.87862 4.77298 3023 ft 225 kts
2026-05-04 20:04 50.89397 4.76989 2911 ft 226 kts 349°
2026-05-04 20:04 50.90821 4.76009 2764 ft 226 kts 320°
2026-05-04 20:05 50.91797 4.74121 2602 ft 219 kts 305°
2026-05-04 20:05 50.92593 4.72122 2442 ft 208 kts 303°
2026-05-04 20:05 50.93204 4.70132 2383 ft 197 kts 288°
2026-05-04 20:05 50.93351 4.67998 2213 ft 194 kts 267°
2026-05-04 20:06 50.93019 4.65938 1973 ft 192 kts 252°
2026-05-04 20:06 50.92575 4.64009 1737 ft 181 kts 253°
2026-05-04 20:06 50.92163 4.62218 1483 ft 170 kts 253°
2026-05-04 20:06 50.91772 4.60516 1288 ft 159 kts 253°
2026-05-04 20:07 50.91406 4.58921 1064 ft 149 kts 253°
2026-05-04 20:07 50.91058 4.57396 894 ft 147 kts 255°
2026-05-04 20:07 50.90711 4.55903 676 ft 142 kts 252°
2026-05-04 20:07 50.90382 4.54467 502 ft 137 kts 253°
2026-05-04 20:08 50.90009 4.52833 287 ft 135 kts 252°
2026-05-04 20:08 50.89724 4.51584 174 ft 124 kts 251°
2026-05-04 20:08 50.89456 4.50450 176 ft 65 kts 251°
2026-05-04 20:08 50.89341 4.49933 177 ft 33 kts 252°
2026-05-04 20:09 50.89363 4.49688 174 ft 21 kts 303°
2026-05-04 20:09 50.89404 4.49600 169 ft 0 kts 306°
2026-05-04 20:09 50.89414 4.49577 168 ft 4 kts 306°
2026-05-04 20:09 50.89435 4.49533 167 ft 9 kts 307°
2026-05-04 20:10 50.89487 4.49428 164 ft 13 kts 307°
2026-05-04 20:10 50.89542 4.49308 160 ft 14 kts 306°
2026-05-04 20:10 50.89598 4.49240 155 ft 12 kts
2026-05-04 20:10 50.89691 4.49280 150 ft 16 kts 14°
2026-05-04 20:11 50.89801 4.49325 143 ft 17 kts 14°
2026-05-04 20:11 50.89928 4.49377 135 ft 21 kts 14°
2026-05-04 20:11 50.90065 4.49434 131 ft 14 kts 14°
2026-05-04 20:11 50.90113 4.49453 130 ft 10 kts 13°
2026-05-04 20:12 50.90210 4.49492 127 ft 17 kts 14°
2026-05-04 20:12 50.90311 4.49533 123 ft 13 kts 14°
2026-05-04 20:12 50.90396 4.49484 123 ft 15 kts 306°
2026-05-04 20:12 50.90406 4.49334 122 ft 15 kts 247°
2026-05-04 20:13 50.90368 4.49209 123 ft 5 kts 245°
2026-05-04 20:13 50.90365 4.49198 121 ft 1 kts 246°
2026-05-04 20:13 50.90344 4.49125 121 ft 11 kts 246°
2026-05-04 20:13 50.90311 4.49009 122 ft 12 kts 245°
2026-05-04 20:14 50.90277 4.48896 123 ft 11 kts 245°
2026-05-04 20:14 50.90245 4.48782 120 ft 11 kts 245°
2026-05-04 20:14 50.90212 4.48667 123 ft 11 kts 246°
2026-05-04 20:14 50.90182 4.48562 119 ft 9 kts 244°
2026-05-04 20:15 50.90158 4.48479 121 ft 8 kts 245°
2026-05-04 20:15 50.90142 4.48412 123 ft 5 kts 271°
2026-05-04 20:15 50.90171 4.48380 121 ft 6 kts 338°
2026-05-04 20:15 50.90203 4.48358 119 ft 2 kts 336°
2026-05-04 20:16 50.90211 4.48352 120 ft 1 kts 335°